Regional Weather Roundup
Issued by NWS Grand Forks, ND

Home | Current Version | Previous Version | Graphics & Text | Print | Product List | Glossary On
Versions: 1 2 3 4 5 6 7 8 9 10 11 12 13 14 15 16 17 18 19 20 21 22 23 24 25 26 27 28 29 30 31 32 33 34 35 36 37 38 39 40 41 42 43 44 45 46 47 48 49 50
000
ASUS43 KFGF 031031
RWRFGF
PRAIRIE TO PINES  WEATHER ROUNDUP
NATIONAL WEATHER SERVICE EASTERN NORTH DAKOTA/GRAND FORKS ND
400 AM CST SAT DEC 03 2016

 **SATELLITE DATA USED TO AUGMENT SKY COVER AT AUTOMATED STATIONS**
 *****  WEATHER ACROSS EASTERN NORTH DAKOTA  *****

CITY           SKY/WX    TMP DP  RH WIND       PRES   REMARKS
GRAND FORKS    NOT AVBL
GRAND FRKS AFB CLOUDY    27  19  74 SW14      30.20F WCI  15
GRAND FRKS NWS   N/A     27 N/A N/A S15         N/A  WCI  15
DEVILS LAKE    CLOUDY    25  21  86 S14       30.13F WCI  13
WAHPETON ARPT  CLOUDY    27  19  74 SW8       30.27F WCI  18
$$

 ***** WEATHER ACROSS CENTRAL AND WESTERN NORTH DAKOTA  *****

CITY           SKY/WX    TMP DP  RH WIND       PRES   REMARKS
BISMARCK       CLEAR     18  17  96 SE10      30.09  WCI   6
MINOT          CLEAR     21  19  92 SE6       29.98  WCI  13
JAMESTOWN      CLOUDY    26  22  84 S9        30.15F WCI  17
MINOT AFB      CLEAR     17  15  92 S14       29.97F WCI   3
GARRISON         N/A     24  22  91 SE5       30.02F WCI  18
WILLISTON      CLEAR     21  18  88 S3        29.91
DICKINSON      CLEAR     17  14  88 S12       29.94F WCI   4
HETTINGER      NOT AVBL
$$

 *****  OTHER AIRPORT OBSERVATIONS IN OUR AREA  *****

CITY           SKY/WX    TMP DP  RH WIND       PRES   REMARKS
WALHALLA         N/A     27  27 100 S9        30.15F WCI  17
GRAFTON AIRPOR CLOUDY    28  23  80 S14       30.21F WCI  17
VALLEY CITY AR CLOUDY    25  25 100 S8        30.19F WCI  16
CANDO          CLOUDY    27  25  93 S20       30.11F WCI  13
CAVALIER APRT    N/A     28  23  80 S15       30.17F WCI  17
GWINNER        CLOUDY    28  25  86 SE6       30.22F WCI  22
SHEYENNE NWR     N/A     24  18  77 S5        29.95S WCI  18
ROLLA          CLOUDY    23  23 100 S16       30.05F WCI  10
 ***** THE ABOVE OBSERVATIONS ARE NON NWS ARE NOT QUALITY
       CONTROLLED AND MAY MIS-REPORT RAIN FOR SNOW...
$$

  *****  WEATHER ACROSS NORTHERN MINNESOTA  *****

CITY           SKY/WX    TMP DP  RH WIND       PRES   REMARKS
FLAG ISLAND    CLOUDY    25  19  80 CALM      30.20F
WARROAD        CLOUDY    27  21  80 S3        30.21F
ROSEAU         CLOUDY    28  23  80 S6        30.20F WCI  22
HALLOCK        CLOUDY    28  25  86 S12       30.19F WCI  18
THF RVR FALLS  CLOUDY    26  21  81 S10       30.23F WCI  16
BAUDETTE       NOT AVBL
WASKISH        CLOUDY    25  21  86 CALM      30.23F
CROOKSTON      CLOUDY    27  21  80 S12       30.24F WCI  16
STEPHEN NDAWN    N/A     28  23  80 S12         N/A  WCI  18
GREENBUSH NDAW   N/A     28  25  86 S7          N/A  WCI  21
$$
  *****  WEATHER ACROSS CENTRAL AND WEST MINNESOTA  *****

CITY           SKY/WX    TMP DP  RH WIND       PRES   REMARKS
FOSSTON        CLOUDY    23  19  86 SW9       30.24S WCI  13
BEMIDJI        CLOUDY    24  18  78 S5        30.23F WCI  18
PARK RAPIDS    NOT AVBL
ELBOW LAKE     NOT AVBL
WADENA         CLOUDY    23  18  80 W3        30.25F
DETROIT LAKES  CLOUDY    27  21  80 S8        30.24F WCI  18
MOORHEAD       CLOUDY    25  18  74 S6        30.26F WCI  18
FERGUS FALLS   CLOUDY    25  19  80 SW7       30.30F WCI  17
MORRIS MN      CLOUDY    27  19  74 CALM      30.27S
STAPLES        CLOUDY    23  18  80 SW6       30.26F WCI  16
$$
  *****  WEATHER ELSEWHERE ACROSS MINNESOTA  *****

CITY           SKY/WX    TMP DP  RH WIND       PRES   REMARKS
DULUTH         CLOUDY    27  23  85 W3        30.23F
INTRNTL FALLS  CLOUDY    24  21  88 CALM      30.23F
ELY            CLOUDY    23  21  93 NW3       30.22F
CLOQUET        CLOUDY    27  21  80 NW5       30.24S WCI  21
WHEATON        CLOUDY   N/A N/A N/A CALM      30.28F
BRAINERD       CLOUDY    25  20  81 W5        30.26S WCI  19
HIBBING        CLOUDY    23  19  86 W3        30.24S
ALEXANDRIA     NOT AVBL
SAINT CLOUD    NOT AVBL
MINNEAPOLIS    NOT AVBL
$$

  *****  WEATHER ACROSS SOUTH DAKOTA  *****

CITY           SKY/WX    TMP DP  RH WIND       PRES   REMARKS
SIOUX FALLS    CLOUDY    30  26  85 S6        30.28F WCI  24
BROOKINGS      MOCLDY    21  19  93 S8        30.26R WCI  12
WATERTOWN      NOT AVBL
HURON          CLEAR     24  23  96 SE6       30.24F WCI  17
SISSETON         N/A     25  18  74 CALM      30.24F
ABERDEEN       NOT AVBL
MITCHELL       CLEAR     27  26  96 SE8       30.25F WCI  19
PIERRE         NOT AVBL
MOBRIDGE       CLOUDY    26  23  88 S16       30.09F FOG     WCI  14
RAPID CITY     CLOUDY    19  15  84 SE6       30.00F WCI  11
$$

  *****  SOME WEATHER IN NEARBY STATES *****

CITY           SKY/WX    TMP DP  RH WIND       PRES   REMARKS
GLASGOW MT     NOT AVBL
GREAT FALLS MT NOT AVBL
CHEYENNE WY    CLOUDY    19  11  70 W9        30.04  WCI   8
SCOTTSBLUFF NE CLOUDY    31  21  66 SW3       30.10F
OMAHA NE       PTCLDY    26  21  81 CALM      30.34
DES MOINES IA  MOCLDY    37  29  72 W3        30.35
DAVENPORT IA   CLOUDY    32  25  75 NW8       30.37  WCI  25
CHICAGO IL     CLOUDY    33  24  69 W8        30.33S
EAU CLAIRE WI  CLOUDY    30  24  78 W5        30.28F
LA CROSSE WI   NOT AVBL
$$

  *****  SOME NATIONAL WEATHER *****

CITY           SKY/WX    TMP DP  RH WIND       PRES   REMARKS
LA GUARDIA NY  PTCLDY    44  29  55 NW21G26   29.94R
RALEIGH NC     PTCLDY    40  28  62 CALM      30.23S
ATLANTA GA     MOCLDY    43  34  70 NW7       30.23
NEW ORLEANS LA CLOUDY    58  53  84 NE7       30.11
OKLAHOMA CITY  LGT RAIN  46  44  93 E6        30.20S
ALBUQUERQUE NM CLOUDY    33  31  92 N6        30.09F
SALT LAKE CITY MOCLDY    25  17  72 E7        30.28S WCI  17
LOS ANGELES CA CLEAR     55  14  19 S5        30.09R
BOISE ID       NOT AVBL
SEATTLE WA     MOCLDY    46  43  89 SW13      30.22
$$

*** WEATHER ACROSS MANITOBA...SASKATCHEWAN AND ONTARIO ***
                ***ONTARIO***

CITY           SKY/WX    TMP DP  RH WIND       PRES   REMARKS
GERALDTON      LGT SNOW  21  19  93 W3        30.21R
THUNDER BAY    MOCLDY    27  25  93 SW5       30.25S WCI  21
SIOUX LOOKOUT  FRZ DRZL  23  19  86 CALM      30.20F
TORONTO        PTCLDY    34  28  80 NW9       30.10R
BIG TROUT LK   FLURRIES  10   7  85 W5        30.25F WCI   2
PICKLE LAKE    NOT AVBL
DRYDEN         CLOUDY    21  19  93 SW6       30.20S WCI  14
KENORA         LGT SNOW  19  18  93 NE3       30.19F FOG
$$
                *** MANITOBA***

CITY           SKY/WX    TMP DP  RH WIND       PRES   REMARKS
BRANDON        FLURRIES  25  23  93 SE9       30.03F WCI  15
DAUPHIN        FLURRIES  27  25  93 SE3       30.00F
ISLAND LAKE    NOT AVBL
PILOT MOUND      N/A     25  21  86 S15         N/A  WCI  12
THE PAS        FLURRIES  28  27  93 SE10      29.98F WCI  19
THOMPSON       CLOUDY    18  14  86 E3        30.10F
WINNIPEG       FLURRIES  27  25  93 S9        30.16F WCI  17
LYNN LAKE      CLOUDY    19  19 100 S8        29.95F WCI   9
CHURCHILL      CLEAR      1  -2  85 SW8       30.15S WCI -12
GILLAM         FLURRIES   5   1  85 SW5       30.20S WCI  -4
$$
                ***SASKATCHEWAN***

CITY           SKY/WX    TMP DP  RH WIND       PRES   REMARKS
ESTEVAN        PTCLDY    25  21  86 S12       29.88F WCI  14
KINDERSLEY     PTCLDY    19  18  93 NE6       29.63S WCI  11
LLOYDMINSTER   CLOUDY    21  21 100 SE9       29.68F WCI  11
PRINCE ALBERT  FLURRIES  27  21  80 E8        29.79  WCI  18
REGINA         CLEAR     18  16  93 SE13      29.79F WCI   4
YORKTON        CLOUDY    27  25  93 SE13G20   29.88F FOG     WCI  16
N. BATTLEFORD  CLOUDY    25  23  93 SE8       29.73R WCI  16
LA RONGE       CLOUDY    28  23  80 S10G18    29.83F WCI  19
SASKATOON      MOCLDY    25  21  86 E12       29.72F WCI  14
SWIFT CURRENT  CLOUDY    32  30  93 SW18G25   29.64F WCI  20
$$
NOTE: THESE ARE AUTOMATED STATIONS WITH LIMITED QUALITY CONTROL
      "FAIR" INDICATES FEW OR NO CLOUDS BELOW 12,000 FEET WITH NO
      SIGNIFICANT WEATHER AND/OR OBSTRUCTIONS TO VISIBILITY.
      SKY/WX - SKY CONDITION AND SIGNIFICANT WEATHER.
      TMP - AIR TEMPERATURE.    DP   - DEWPOINT TEMPERATURE.
      RH  - RELATIVE HUMIDITY.  PRES - PRESSURE.
      HX  - HEAT INDEX.         WCI  - WIND CHILL INDEX.
$



USA.gov is the U.S. government's official web portal to all federal, state and local government web resources and services.